Duncan, OK

6:27 PM CDT on August 24, 2016 (GMT -0500)
Halliburton

Weather History for KDUC - April, 2013

Change the Weather History Date:

Monday, April 29, 2013

  Actual Average (KLAW) Record (KLAW)
Temperature  
Mean Temperature 73 °F -  
Max Temperature 87 °F 75 °F 90 °F (2013)
Min Temperature 59 °F 53 °F 40 °F (1956)
Cooling Degree Days 8    
Growing Degree Days 23 (Base 50)    
Moisture  
Dew Point 56 °F    
Average Humidity 61    
Maximum Humidity 100    
Minimum Humidity 27    
Precipitation  
Precipitation 0.00 in - - ()
Sea Level Pressure  
Sea Level Pressure 29.82 in    
Wind  
Wind Speed 10 mph (South)    
Max Wind Speed 22 mph    
Max Gust Speed 28 mph    
Visibility 10 miles    
Events      
Averages and records for this station are not official NWS values.
T = Trace of Precipitation, MM = Missing Value Source: NWS Daily Summary

Daily Weather History Graph

Daily Weather History Graph

Search for Another Location

Airport or City:

Trip Planner

Search our weather history database for the weather conditions in past years. The results will help you decide how hot, cold, wet, or windy it might be!

Date:

Astronomy

Apr. 29, 2013 Rise Set
Actual Time 6:43 AM CDT 8:15 PM CDT
Civil Twilight 6:16 AM CDT 8:41 PM CDT
Nautical Twilight 5:44 AM CDT 9:14 PM CDT
Astronomical Twilight 5:11 AM CDT 9:47 PM CDT
Moon No Moon Rise 10:10 AM CDT (4/29)
Length of Visible Light 14h 24m
Length of Day
13h 31m
Waning Gibbous, 80% of the Moon is Illuminated
Apr 29
Waning Gibbous
May 2
Last Quarter
May 9
New
May 17
First Quarter
May 24
Full

Hourly Weather History & Observations

Time (CDT) Temp. Heat Index Dew Point Humidity Pressure Visibility Wind Dir Wind Speed Gust Speed Precip Events Conditions
12:15 AM 68.0 °F - 62.6 °F 83% 29.87 in 10.0 mi SE 8.1 mph - N/A   Clear
12:35 AM 68.0 °F - 62.6 °F 83% 29.87 in 10.0 mi SSE 8.1 mph - N/A   Clear
12:55 AM 68.0 °F - 62.6 °F 83% 29.87 in 10.0 mi SE 8.1 mph - N/A   Clear
1:15 AM 66.2 °F - 62.6 °F 88% 29.87 in 10.0 mi SE 10.4 mph - N/A   Clear
1:35 AM 66.2 °F - 62.6 °F 88% 29.87 in 10.0 mi SSE 8.1 mph - N/A   Clear
1:55 AM 64.4 °F - 62.6 °F 94% 29.87 in 10.0 mi SSE 8.1 mph - N/A   Clear
2:15 AM 64.4 °F - 62.6 °F 94% 29.87 in 10.0 mi SSE 8.1 mph - N/A   Clear
2:35 AM 64.4 °F - 62.6 °F 94% 29.86 in 10.0 mi SSE 6.9 mph - N/A   Clear
2:55 AM 64.4 °F - 62.6 °F 94% 29.85 in 10.0 mi SE 8.1 mph - N/A   Clear
3:15 AM 64.4 °F - 62.6 °F 94% 29.85 in 10.0 mi SSE 6.9 mph - N/A   Clear
3:35 AM 64.4 °F - 62.6 °F 94% 29.85 in 10.0 mi SSE 6.9 mph - N/A   Clear
3:55 AM 62.6 °F - 62.6 °F 100% 29.85 in 10.0 mi SSE 6.9 mph - N/A   Clear
4:15 AM 62.6 °F - 60.8 °F 94% 29.85 in 10.0 mi SSE 5.8 mph - N/A   Clear
4:35 AM 62.6 °F - 60.8 °F 94% 29.85 in 10.0 mi SSE 5.8 mph - N/A   Clear
4:55 AM 62.6 °F - 60.8 °F 94% 29.85 in 10.0 mi SSE 4.6 mph - N/A   Clear
5:15 AM 60.8 °F - 60.8 °F 100% 29.85 in 10.0 mi SSE 3.5 mph - N/A   Clear
5:35 AM 60.8 °F - 60.8 °F 100% 29.85 in 10.0 mi SSE 5.8 mph - N/A   Clear
5:55 AM 60.8 °F - 59.0 °F 94% 29.85 in 10.0 mi SSE 4.6 mph - N/A   Clear
6:15 AM 60.8 °F - 60.8 °F 100% 29.85 in 10.0 mi SE 3.5 mph - N/A   Clear
6:35 AM 59.0 °F - 59.0 °F 100% 29.86 in 10.0 mi Calm Calm - N/A   Clear
6:55 AM 59.0 °F - 59.0 °F 100% 29.86 in 10.0 mi Calm Calm - N/A   Clear
7:15 AM 59.0 °F - 59.0 °F 100% 29.87 in 10.0 mi SE 4.6 mph - N/A   Clear
7:35 AM 59.0 °F - 59.0 °F 100% 29.87 in 10.0 mi SE 3.5 mph - N/A   Clear
7:55 AM 60.8 °F - 60.8 °F 100% 29.87 in 10.0 mi SSE 3.5 mph - N/A   Clear
8:15 AM 62.6 °F - 60.8 °F 94% 29.87 in 10.0 mi South 5.8 mph - N/A   Clear
8:35 AM 64.4 °F - 62.6 °F 94% 29.87 in 10.0 mi South 8.1 mph - N/A   Clear
8:55 AM 68.0 °F - 60.8 °F 78% 29.87 in 10.0 mi South 8.1 mph - N/A   Clear
9:15 AM 68.0 °F - 60.8 °F 78% 29.87 in 10.0 mi SSW 9.2 mph - N/A   Clear
9:35 AM 71.6 °F - 59.0 °F 64% 29.87 in 10.0 mi SSW 6.9 mph - N/A   Clear
9:55 AM 73.4 °F - 57.2 °F 57% 29.87 in 10.0 mi SSW 10.4 mph - N/A   Clear
10:15 AM 73.4 °F - 57.2 °F 57% 29.87 in 10.0 mi SW 11.5 mph - N/A   Clear
10:35 AM 75.2 °F - 55.4 °F 50% 29.87 in 10.0 mi SW 10.4 mph - N/A   Clear
10:55 AM 77.0 °F - 55.4 °F 47% 29.87 in 10.0 mi SW 10.4 mph - N/A   Clear
11:15 AM 77.0 °F - 57.2 °F 50% 29.87 in 10.0 mi South 10.4 mph - N/A   Clear
11:35 AM 78.8 °F - 57.2 °F 47% 29.86 in 10.0 mi South 11.5 mph 16.1 mph N/A   Clear
11:55 AM 80.6 °F 80.5 °F 55.4 °F 42% 29.86 in 10.0 mi South 12.7 mph 19.6 mph N/A   Clear
12:15 PM 80.6 °F 80.3 °F 53.6 °F 39% 29.85 in 10.0 mi SSW 10.4 mph 18.4 mph N/A   Clear
12:35 PM 82.4 °F 81.7 °F 55.4 °F 39% 29.85 in 10.0 mi SSW 11.5 mph 18.4 mph N/A   Clear
12:55 PM 82.4 °F 81.7 °F 55.4 °F 39% 29.84 in 10.0 mi South 11.5 mph - N/A   Clear
1:15 PM 82.4 °F - 51.8 °F 35% 29.84 in 10.0 mi SSW 12.7 mph 19.6 mph N/A   Clear
1:35 PM 86.0 °F 84.2 °F 53.6 °F 33% 29.83 in 10.0 mi SSW 16.1 mph 27.6 mph N/A   Clear
1:55 PM 86.0 °F - 51.8 °F 31% 29.82 in 10.0 mi South 16.1 mph 24.2 mph N/A   Clear
2:15 PM 86.0 °F - 51.8 °F 31% 29.82 in 10.0 mi SSW 13.8 mph 21.9 mph N/A   Clear
2:35 PM 86.0 °F 84.2 °F 53.6 °F 33% 29.81 in 10.0 mi South 15.0 mph - N/A   Clear
2:55 PM 86.0 °F 84.2 °F 53.6 °F 33% 29.80 in 10.0 mi SSW 16.1 mph 23.0 mph N/A   Clear
3:15 PM 86.0 °F 84.2 °F 53.6 °F 33% 29.79 in 10.0 mi South 19.6 mph 24.2 mph N/A   Clear
3:55 PM 87.8 °F - 51.8 °F 29% 29.77 in 10.0 mi South 18.4 mph 23.0 mph N/A   Clear
4:15 PM 87.8 °F - 50.0 °F 27% 29.77 in 10.0 mi SSW 18.4 mph 24.2 mph N/A   Clear
4:35 PM 87.8 °F - 51.8 °F 29% 29.76 in 10.0 mi South 19.6 mph - N/A   Clear
4:55 PM 87.8 °F - 51.8 °F 29% 29.75 in 10.0 mi South 17.3 mph 23.0 mph N/A   Clear
5:15 PM 87.8 °F - 51.8 °F 29% 29.75 in 10.0 mi South 20.7 mph 27.6 mph N/A   Clear
5:35 PM 86.0 °F - 51.8 °F 31% 29.75 in 10.0 mi South 21.9 mph 25.3 mph N/A   Clear
5:55 PM 86.0 °F - 50.0 °F 29% 29.75 in 10.0 mi South 19.6 mph 26.5 mph N/A   Clear
6:15 PM 86.0 °F - 51.8 °F 31% 29.74 in 10.0 mi South 18.4 mph 25.3 mph N/A   Clear
6:35 PM 84.2 °F - 50.0 °F 30% 29.74 in 10.0 mi South 21.9 mph 26.5 mph N/A   Clear
6:55 PM 82.4 °F - 51.8 °F 35% 29.74 in 10.0 mi South 19.6 mph - N/A   Clear
7:15 PM 82.4 °F - 50.0 °F 32% 29.73 in 10.0 mi South 18.4 mph 24.2 mph N/A   Clear
7:35 PM 80.6 °F - 48.2 °F 32% 29.73 in 10.0 mi South 17.3 mph - N/A   Clear
8:15 PM 78.8 °F - 44.6 °F 30% 29.75 in 10.0 mi South 16.1 mph - N/A   Clear
8:35 PM 77.0 °F - 46.4 °F 34% 29.75 in 10.0 mi South 15.0 mph 20.7 mph N/A   Clear
8:55 PM 75.2 °F - 46.4 °F 36% 29.76 in 10.0 mi SSE 11.5 mph - N/A   Clear
9:15 PM 73.4 °F - 50.0 °F 44% 29.77 in 10.0 mi SSE 13.8 mph - N/A   Clear
9:35 PM 73.4 °F - 51.8 °F 47% 29.77 in 10.0 mi SSE 11.5 mph - N/A   Clear
9:55 PM 71.6 °F - 51.8 °F 50% 29.78 in 10.0 mi SSE 15.0 mph - N/A   Clear
10:15 PM 71.6 °F - 53.6 °F 53% 29.78 in 10.0 mi SSE 13.8 mph - N/A   Clear
10:35 PM 71.6 °F - 53.6 °F 53% 29.78 in 10.0 mi SSE 16.1 mph - N/A   Clear
10:55 PM 71.6 °F - 53.6 °F 53% 29.78 in 10.0 mi South 17.3 mph 23.0 mph N/A   Clear
11:15 PM 71.6 °F - 53.6 °F 53% 29.77 in 10.0 mi SSE 17.3 mph 21.9 mph N/A   Clear
11:35 PM 69.8 °F - 55.4 °F 60% 29.77 in 10.0 mi SSE 18.4 mph 24.2 mph N/A   Clear
11:55 PM 69.8 °F - 55.4 °F 60% 29.78 in 10.0 mi South 16.1 mph - N/A   Clear